Greenville, ME

9:13 PM EDT on May 21, 2018 (GMT -0400)
Greenville

Weather History for KGNR - January, 2013

Change the Weather History Date:

Sunday, January 6, 2013

  Actual Average (KMLT) Record (KMLT)
Temperature  
Mean Temperature 16 °F -  
Max Temperature 25 °F 24 °F 53 °F (2014)
Min Temperature 7 °F 4 °F -26 °F (1905)
Degree Days  
Heating Degree Days 49    
Moisture  
Dew Point 11 °F    
Average Humidity 80    
Maximum Humidity 92    
Minimum Humidity 70    
Precipitation  
Precipitation 0.05 in - - ()
Sea Level Pressure  
Sea Level Pressure 29.98 in    
Wind  
Wind Speed 1 mph (ESE)    
Max Wind Speed 6 mph    
Max Gust Speed -    
Averages and records for this station are not official NWS values.
T = Trace of Precipitation, MM = Missing Value Source: NWS Daily Summary

Daily Weather History Graph

Daily Weather History Graph

Search for Another Location

Airport or City:

Astronomy

Jan. 06, 2013 Rise Set
Actual Time 7:17 AM EST 4:11 PM EST
Civil Twilight 6:44 AM EST 4:44 PM EST
Nautical Twilight 6:06 AM EST 5:21 PM EST
Astronomical Twilight 5:31 AM EST 5:57 PM EST
Moon 1:21 AM EST (1/6) 11:41 AM EST (1/6)
Length of Visible Light 10h 00m
Length of Day
8h 53m
Waning Crescent, 33% of the Moon is Illuminated
Jan 6
Waning Crescent
Jan 11
New
Jan 18
First Quarter
Jan 26
Full
Feb 3
Last Quarter

Hourly Weather History & Observations

Time (EST) Temp. Windchill Dew Point Humidity Pressure Visibility Wind Dir Wind Speed Gust Speed Precip Events Conditions
12:56 AM 8.1 °F - 1.0 °F 73% 30.16 in - Calm Calm - N/A   Unknown
1:56 AM 8.1 °F - 1.0 °F 73% 30.14 in - Calm Calm - N/A   Unknown
2:56 AM 8.1 °F - 1.9 °F 76% 30.12 in - Calm Calm - N/A   Unknown
3:56 AM 10.9 °F - 3.0 °F 70% 30.10 in - Calm Calm - N/A   Unknown
4:56 AM 7.0 °F 0.1 °F 1.9 °F 80% 30.09 in - Variable 3.5 mph - N/A   Unknown
5:56 AM 8.1 °F 1.4 °F 1.9 °F 76% 30.09 in - SSE 3.5 mph - N/A   Unknown
6:56 AM 8.1 °F - 1.9 °F 76% 30.06 in - Calm Calm - N/A   Unknown
7:56 AM 10.0 °F 3.6 °F 3.9 °F 76% 30.04 in - East 3.5 mph - N/A   Unknown
8:56 AM 12.9 °F - 7.0 °F 77% 30.03 in - Calm Calm - 0.01 in   Unknown
9:56 AM 16.0 °F - 12.9 °F 88% 30.00 in - Calm Calm - 0.01 in   Unknown
10:56 AM 19.0 °F - 16.0 °F 88% 29.96 in - Calm Calm - N/A   Unknown
11:56 AM 23.0 °F - 17.1 °F 78% 29.91 in - Calm Calm - N/A   Unknown
12:56 PM 25.0 °F - 17.1 °F 72% 29.88 in - Calm Calm - N/A   Unknown
1:56 PM 25.0 °F - 17.1 °F 72% 29.87 in - Calm Calm - N/A   Unknown
2:56 PM 25.0 °F - 17.1 °F 72% 29.88 in - Calm Calm - N/A   Unknown
3:56 PM 23.0 °F 18.4 °F 17.1 °F 78% 29.87 in - NNE 3.5 mph - N/A   Unknown
4:56 PM 21.9 °F - 17.1 °F 82% 29.89 in - Calm Calm - N/A   Unknown
5:56 PM 17.1 °F - 12.0 °F 81% 29.90 in - Calm Calm - N/A   Unknown
6:56 PM 18.0 °F 12.7 °F 14.0 °F 84% 29.91 in - ENE 3.5 mph - N/A   Unknown
7:56 PM 19.9 °F 12.1 °F 16.0 °F 85% 29.92 in - ESE 5.8 mph - N/A   Unknown
8:56 PM 19.9 °F - 17.1 °F 89% 29.93 in - Calm Calm - N/A   Unknown
9:56 PM 19.0 °F - 17.1 °F 92% 29.93 in - Calm Calm - 0.01 in   Unknown
10:56 PM 18.0 °F 12.7 °F 16.0 °F 92% 29.94 in - SE 3.5 mph - 0.01 in   Unknown
11:56 PM 17.1 °F - 15.1 °F 92% 29.94 in - Calm Calm - 0.01 in   Unknown